Location: Kitchener
(43.4500°N, 80.5000°W)
Time: 03:52:48
(UTC-04:00)

ATLAS 5 CENTAUR R/B - Visible Passes

Search period start: 30 August 2015 00:00
Search period end: 09 September 2015 00:00
Orbit: 691 x 970 km, 63.4° (Epoch: 26 July)

Date Brightness Start Highest point End Pass type
(mag) Time Alt. Az. Time Alt. Az. Time Alt. Az.
30 Aug 3.2 02:55:42 38° NE 02:55:42 38° NE 02:59:03 10° NE visible
30 Aug 3.6 04:37:15 20° WNW 04:39:02 23° NW 04:43:22 10° NNE visible
31 Aug 3.6 02:37:29 30° NE 02:37:29 30° NE 02:40:15 10° NE visible
31 Aug 3.5 04:19:02 23° NW 04:20:12 24° NW 04:24:37 10° NNE visible
31 Aug 4.6 06:06:18 10° NNW 06:07:04 10° N 06:07:47 10° N visible
01 Sep 4.0 02:19:14 24° NE 02:19:14 24° NE 02:21:27 10° NE visible
01 Sep 3.5 04:00:48 25° NW 04:01:22 25° NW 04:05:51 10° NNE visible
01 Sep 4.6 05:47:13 10° NNW 05:48:12 10° N 05:49:07 10° N visible
02 Sep 4.2 02:00:58 20° NE 02:00:58 20° NE 02:02:39 10° NE visible
02 Sep 3.5 03:42:31 26° NW 03:42:32 26° NW 03:47:06 10° NNE visible
02 Sep 4.6 05:28:10 10° NNW 05:29:20 11° N 05:30:27 10° N visible
03 Sep 4.5 01:42:42 16° NE 01:42:42 16° NE 01:43:50 10° NE visible
03 Sep 3.6 03:24:15 27° NNW 03:24:15 27° NNW 03:28:20 10° NNE visible
03 Sep 4.6 05:09:07 10° NNW 05:10:28 11° NNW 05:11:45 10° N visible
04 Sep 4.6 01:24:24 13° NE 01:24:24 13° NE 01:25:02 10° NE visible
04 Sep 3.7 03:05:56 27° NNW 03:05:56 27° NNW 03:09:35 10° NNE visible
04 Sep 4.6 04:50:05 10° NNW 04:51:36 11° NNW 04:53:02 10° N visible
05 Sep 4.8 01:06:04 11° NE 01:06:04 11° NE 01:06:13 10° NE visible
05 Sep 3.9 02:47:37 25° N 02:47:37 25° N 02:50:49 10° NNE visible
05 Sep 4.6 04:31:04 10° NNW 04:32:43 11° NNW 04:34:19 10° N visible
05 Sep 4.8 06:18:46 10° N 06:20:09 11° NNE 06:21:39 10° NNE visible
06 Sep 4.1 02:29:16 24° N 02:29:16 24° N 02:32:03 10° NNE visible
06 Sep 4.6 04:12:03 10° NW 04:13:52 11° NNW 04:15:36 10° N visible
06 Sep 4.9 06:00:04 10° N 06:01:17 11° NNE 06:02:35 10° NNE visible
07 Sep 4.2 02:10:55 22° N 02:10:55 22° N 02:13:18 10° NNE visible
07 Sep 4.6 03:53:03 10° NW 03:54:59 12° NNW 03:56:52 10° N visible
07 Sep 4.9 05:41:22 10° N 05:42:24 10° N 05:43:31 10° NNE visible
08 Sep 4.4 01:52:32 20° N 01:52:32 20° N 01:54:32 10° NNE visible
08 Sep 4.6 03:34:05 10° NW 03:36:07 12° NNW 03:38:08 10° N visible
08 Sep 5.0 05:22:43 10° N 05:23:32 10° N 05:24:26 10° NNE visible
